KF0TNT Weather Reports


time (UTC)temp
C
wind
direction
speed
KPH
gust
KPH
rain 1hr
cm
rain 24hr
cm
rain mn
cm
humidity
%
barometer
mb
20260507210812 17 48 4.8 19.3 0.00 0.00 0.00 26 1017.7
20260507210309 16 319 8.0 12.9 0.00 0.00 0.00 28 1018.0
20260507205805 16 225 9.7 14.5 0.00 0.00 0.00 28 1018.1
20260507205306 16 12 4.8 14.5 0.00 0.00 0.00 28 1018.0
20260507204758 16 339 4.8 12.9 0.00 0.00 0.00 28 1018.0
20260507204256 16 226 6.4 12.9 0.00 0.00 0.00 28 1018.4
20260507203753 16 265 12.9 17.7 0.00 0.00 0.00 28 1018.5
20260507203251 16 245 12.9 14.5 0.00 0.00 0.00 29 1018.4
20260507202747 16 38 6.4 14.5 0.00 0.00 0.00 29 1018.5
20260507202243 16 284 14.5 17.7 0.00 0.00 0.00 28 1018.5
20260507201738 16 302 12.9 16.1 0.00 0.00 0.00 29 1018.7
20260507201235 16 44 3.2 12.9 0.00 0.00 0.00 28 1018.9
20260507200732 16 303 14.5 20.9 0.00 0.00 0.00 29 1018.7
20260507200227 16 279 9.7 19.3 0.00 0.00 0.00 28 1018.7
20260507195724 16 301 11.3 16.1 0.00 0.00 0.00 29 1018.7
20260507195221 16 319 8.0 9.7 0.00 0.00 0.00 30 1019.0
20260507194718 15 266 9.7 24.1 0.00 0.00 0.00 31 1019.1
20260507194214 15 328 6.4 11.3 0.00 0.00 0.00 29 1019.1
20260507193706 15 323 3.2 19.3 0.00 0.00 0.00 30 1019.0
20260507193203 15 263 9.7 14.5 0.00 0.00 0.00 30 1019.2
20260507192658 15 318 14.5 16.1 0.00 0.00 0.00 30 1019.1
20260507192156 15 256 4.8 20.9 0.00 0.00 0.00 31 1019.2
20260507191651 15 334 14.5 16.1 0.00 0.00 0.00 31 1019.2
20260507191149 14 345 8.0 17.7 0.00 0.00 0.00 31 1019.2
20260507190646 15 329 12.9 22.5 0.00 0.00 0.00 30 1019.5
20260507190144 15 344 14.5 24.1 0.00 0.00 0.00 31 1019.6
20260507185642 15 329 20.9 24.1 0.00 0.00 0.00 31 1019.5
20260507185139 15 325 16.1 25.7 0.00 0.00 0.00 30 1019.5
20260507184637 15 25 16.1 20.9 0.00 0.00 0.00 30 1019.4
20260507184135 14 331 17.7 22.5 0.00 0.00 0.00 29 1019.5
20260507183630 14 19 17.7 20.9 0.00 0.00 0.00 28 1019.6
20260507183127 14 6 19.3 24.1 0.00 0.00 0.00 27 1019.5
20260507182624 14 325 11.3 14.5 0.00 0.00 0.00 26 1019.5
20260507182120 14 320 12.9 17.7 0.00 0.00 0.00 26 1019.4
20260507181617 14 11 16.1 17.7 0.00 0.00 0.00 26 1019.7
20260507181113 14 354 14.5 16.1 0.00 0.00 0.00 26 1019.4
20260507180609 14 333 9.7 12.9 0.00 0.00 0.00 28 1019.5
20260507180107 14 316 11.3 12.9 0.00 0.00 0.00 27 1019.5
20260507175602 14 358 6.4 11.3 0.00 0.00 0.00 25 1019.5
20260507175100 14 263 3.2 14.5 0.00 0.00 0.00 24 1019.6
20260507174557 14 309 6.4 14.5 0.00 0.00 0.00 27 1019.6
20260507174055 14 332 6.4 11.3 0.00 0.00 0.00 25 1019.6
20260507173552 14 317 14.5 19.3 0.00 0.00 0.00 27 1019.9
20260507173049 14 353 6.4 12.9 0.00 0.00 0.00 28 1019.9
20260507172544 13 314 9.7 14.5 0.00 0.00 0.00 29 1020.0
20260507172042 13 323 14.5 19.3 0.00 0.00 0.00 30 1020.0
20260507171537 13 72 4.8 14.5 0.00 0.00 0.00 31 1020.0
20260507171034 13 21 12.9 17.7 0.00 0.00 0.00 29 1020.4
20260507170531 13 4 6.4 8.0 0.00 0.00 0.00 31 1020.1
20260507170028 12 79 3.2 11.3 0.00 0.00 0.00 31 1020.1
20260507165524 12 312 8.0 11.3 0.00 0.00 0.00 32 1020.4
20260507165020 12 283 8.0 12.9 0.00 0.00 0.00 34 1020.4
20260507164517 12 0 4.8 17.7 0.00 0.00 0.00 35 1020.4
20260507164014 12 291 12.9 17.7 0.00 0.00 0.00 36 1020.4
20260507163511 12 269 6.4 12.9 0.00 0.00 0.00 35 1020.4
20260507163009 12 257 8.0 14.5 0.00 0.00 0.00 34 1020.5
20260507162509 12 314 9.7 14.5 0.00 0.00 0.00 33 1020.2
20260507162006 12 322 9.7 17.7 0.00 0.00 0.00 32 1020.4
20260507161502 11 318 9.7 14.5 0.00 0.00 0.00 32 1020.6
20260507160959 11 319 6.4 14.5 0.00 0.00 0.00 34 1020.5
20260507160455 11 237 8.0 9.7 0.00 0.00 0.00 31 1020.5
20260507155951 11 244 4.8 11.3 0.00 0.00 0.00 35 1020.5
20260507155447 11 248 6.4 9.7 0.00 0.00 0.00 36 1020.5
20260507154944 11 248 3.2 17.7 0.00 0.00 0.00 35 1021.0
20260507154441 10 262 9.7 11.3 0.00 0.00 0.00 39 1020.9
20260507153938 10 218 17.7 17.7 0.00 0.00 0.00 39 1020.7
20260507153435 10 286 8.0 14.5 0.00 0.00 0.00 41 1020.9
20260507152931 10 224 14.5 17.7 0.00 0.00 0.00 40 1020.9
20260507152427 10 244 6.4 9.7 0.00 0.00 0.00 40 1020.7
20260507151923 9 337 9.7 14.5 0.00 0.00 0.00 40 1020.9
20260507151420 9 256 4.8 17.7 0.00 0.00 0.00 42 1020.6
20260507150917 8 265 3.2 14.5 0.00 0.00 0.00 43 1020.7
20260507150414 8 284 6.4 14.5 0.00 0.00 0.00 41 1021.0
20260507145910 8 309 11.3 12.9 0.00 0.00 0.00 42 1020.7
20260507145406 8 313 4.8 9.7 0.00 0.00 0.00 43 1020.9
20260507144903 7 206 8.0 9.7 0.00 0.00 0.00 44 1020.7
20260507144400 7 275 6.4 11.3 0.00 0.00 0.00 44 1020.7
20260507143857 7 255 6.4 11.3 0.00 0.00 0.00 44 1020.7
20260507143354 7 196 3.2 8.0 0.00 0.00 0.00 44 1020.7
20260507142851 6 246 6.4 9.7 0.00 0.00 0.00 43 1020.7
20260507142347 6 176 8.0 9.7 0.00 0.00 0.00 44 1020.6
20260507141844 6 229 9.7 12.9 0.00 0.00 0.00 43 1020.9
20260507141340 6 215 6.4 14.5 0.00 0.00 0.00 46 1020.7
20260507140837 5 244 9.7 22.5 0.00 0.00 0.00 45 1021.0
20260507140334 5 277 6.4 9.7 0.00 0.00 0.00 48 1020.9
20260507135832 5 301 1.6 17.7 0.00 0.00 0.00 48 1020.9
20260507135328 5 60 3.2 9.7 0.00 0.00 0.00 48 1021.0
20260507134826 5 307 4.8 8.0 0.00 0.00 0.00 47 1021.1
20260507134321 4 314 8.0 12.9 0.00 0.00 0.00 47 1021.0
20260507133817 3 298 4.8 6.4 0.00 0.00 0.00 49 1020.9
20260507133313 3 253 3.2 9.7 0.00 0.00 0.00 50 1020.5
20260507132812 3 257 1.6 8.0 0.00 0.00 0.00 49 1020.6
20260507132308 2 314 3.2 4.8 0.00 0.00 0.00 51 1020.5
20260507131805 2 4 3.2 4.8 0.00 0.00 0.00 54 1020.4
20260507131302 1 353 1.6 6.4 0.00 0.00 0.00 55 1020.4
20260507130758 1 28 4.8 6.4 0.00 0.00 0.00 58 1020.5
20260507130256 1 357 3.2 6.4 0.00 0.00 0.00 59 1020.4
20260507125755 1 37 3.2 6.4 0.00 0.00 0.00 55 1020.4
20260507125252 1 20 4.8 6.4 0.00 0.00 0.00 56 1020.2
20260507124749 1 325 4.8 6.4 0.00 0.00 0.00 54 1020.1
20260507124245 1 63 3.2 3.2 0.00 0.00 0.00 55 1020.0
20260507123744 1 298 4.8 4.8 0.00 0.00 0.00 54 1020.2
20260507123241 0 232 6.4 9.7 0.00 0.00 0.00 56 1020.0
20260507122736 0 168 4.8 8.0 0.00 0.00 0.00 63 1020.0
20260507122232 0 16 3.2 3.2 0.00 0.00 0.00 64 1019.9
20260507121728 0 57 3.2 4.8 0.00 0.00 0.00 65 1019.7
20260507121224 -1 40 3.2 3.2 0.00 0.00 0.00 67 1019.7
20260507120720 -1 17 3.2 3.2 0.00 0.00 0.00 66 1019.9
20260507120218 -1 52 1.6 3.2 0.00 0.00 0.00 66 1020.0
20260507115714 -1 27 3.2 4.8 0.00 0.00 0.00 69 1019.9
20260507115209 -1 40 4.8 6.4 0.00 0.00 0.00 69 1020.1
20260507114705 -1 42 3.2 3.2 0.00 0.00 0.00 69 1020.1
20260507114203 -1 1 3.2 4.8 0.00 0.00 0.00 68 1020.0
20260507113700 -1 67 3.2 6.4 0.00 0.00 0.00 68 1020.0
20260507113157 -1 48 4.8 6.4 0.00 0.00 0.00 72 1019.7
20260507112655 -1 50 3.2 4.8 0.00 0.00 0.00 73 1019.9
20260507112151 -1 51 3.2 4.8 0.00 0.00 0.00 70 1019.9
20260507111649 -1 23 1.6 6.4 0.00 0.00 0.00 67 1020.2
20260507111145 -1 30 0.0 4.8 0.00 0.00 0.00 66 1020.0
20260507110641 -1 45 4.8 6.4 0.00 0.00 0.00 71 1020.1
20260507110138 -1 75 1.6 6.4 0.00 0.00 0.00 71 1020.1
20260507105635 -2 27 4.8 6.4 0.00 0.00 0.00 73 1020.0
20260507105131 -2 34 4.8 6.4 0.00 0.00 0.00 74 1019.9
20260507104628 -2 37 6.4 6.4 0.00 0.00 0.00 74 1020.0
20260507104125 -1 29 4.8 4.8 0.00 0.00 0.00 73 1019.5
20260507103621 -1 37 3.2 6.4 0.00 0.00 0.00 72 1019.9
20260507103118 -1 49 4.8 4.8 0.00 0.00 0.00 70 1019.7
20260507102614 -1 37 3.2 6.4 0.00 0.00 0.00 70 1020.0
20260507102110 -1 39 4.8 8.0 0.00 0.00 0.00 68 1019.9
20260507101606 -2 53 6.4 8.0 0.00 0.00 0.00 71 1020.1
20260507101102 -2 3 0.0 4.8 0.00 0.00 0.00 75 1020.2
20260507100600 -1 71 0.0 3.2 0.00 0.00 0.00 74 1020.2
20260507100058 -1 48 3.2 4.8 0.00 0.00 0.00 72 1020.2
20260507095555 -1 35 3.2 6.4 0.00 0.00 0.00 71 1020.1
20260507095052 -1 35 8.0 9.7 0.00 0.00 0.00 74 1020.0
20260507094548 -1 53 3.2 3.2 0.00 0.00 0.00 74 1020.1
20260507094045 -1 17 3.2 4.8 0.00 0.00 0.00 72 1019.9
20260507093543 -1 107 1.6 4.8 0.00 0.00 0.00 73 1019.9
20260507093041 -1 26 6.4 8.0 0.00 0.00 0.00 73 1020.2
20260507092537 -1 34 6.4 8.0 0.00 0.00 0.00 72 1020.1
20260507092034 -1 38 6.4 8.0 0.00 0.00 0.00 74 1020.0
20260507091531 -2 35 8.0 8.0 0.00 0.00 0.00 79 1020.1
20260507091027 -2 68 1.6 4.8 0.00 0.00 0.00 78 1020.2
20260507090523 -2 28 4.8 6.4 0.00 0.00 0.00 79 1020.2
20260507090020 -2 42 3.2 3.2 0.00 0.00 0.00 78 1020.4
20260507085517 -2 23 4.8 4.8 0.00 0.00 0.00 77 1020.6
20260507085014 -2 25 4.8 9.7 0.00 0.00 0.00 79 1020.4
20260507084510 -2 19 3.2 4.8 0.00 0.00 0.00 84 1020.5
20260507084008 -2 24 3.2 8.0 0.00 0.00 0.00 84 1020.5
20260507083503 -2 27 3.2 6.4 0.00 0.00 0.00 84 1020.4
20260507083000 -2 1 3.2 4.8 0.00 0.00 0.00 83 1020.2
20260507082457 -2 58 1.6 6.4 0.00 0.00 0.00 82 1020.4
20260507081953 -2 19 4.8 6.4 0.00 0.00 0.00 84 1020.5
20260507081449 -2 36 4.8 6.4 0.00 0.00 0.00 83 1020.6
20260507080947 -2 53 4.8 6.4 0.00 0.00 0.00 86 1020.7
20260507080442 -2 25 4.8 6.4 0.00 0.00 0.00 87 1020.5
20260507075937 -2 15 4.8 4.8 0.00 0.00 0.00 89 1020.5
20260507075435 -3 42 6.4 6.4 0.00 0.00 0.00 92 1020.7
20260507074931 -3 12 3.2 6.4 0.00 0.00 0.00 93 1020.5
20260507074428 -3 15 3.2 6.4 0.00 0.00 0.00 94 1020.5
20260507073926 -3 29 3.2 6.4 0.00 0.00 0.00 94 1020.7
20260507073422 -3 27 3.2 4.8 0.00 0.00 0.00 95 1020.7
20260507072919 -3 24 3.2 4.8 0.00 0.00 0.00 95 1020.7
20260507072416 -3 34 3.2 4.8 0.00 0.00 0.00 96 1020.9
20260507071908 -3 24 3.2 3.2 0.00 0.00 0.00 96 1020.9
20260507071405 -3 36 3.2 4.8 0.00 0.00 0.00 97 1020.6
20260507070901 -3 35 4.8 6.4 0.00 0.00 0.00 97 1020.7
20260507070358 -3 23 3.2 6.4 0.00 0.00 0.00 97 1020.7
20260507065855 -3 25 4.8 4.8 0.00 0.00 0.00 97 1021.0
20260507065352 -3 30 4.8 4.8 0.00 0.00 0.00 96 1020.6
20260507064849 -3 5 3.2 4.8 0.00 0.00 0.00 96 1020.7
20260507064347 -3 44 3.2 4.8 0.00 0.00 0.00 96 1021.0
20260507063845 -3 31 3.2 4.8 0.00 0.00 0.00 96 1020.9
20260507063341 -3 27 4.8 4.8 0.00 0.00 0.00 96 1021.0
20260507062838 -3 358 1.6 3.2 0.00 0.00 0.00 96 1020.9
20260507062335 -3 25 4.8 4.8 0.00 0.00 0.00 96 1020.7
20260507061833 -3 24 6.4 6.4 0.00 0.00 0.00 96 1021.0
20260507061331 -2 39 4.8 4.8 0.00 0.00 0.00 96 1021.0
20260507060829 -2 17 4.8 4.8 0.00 0.00 0.00 96 1020.9
20260507060325 -2 12 1.6 3.2 0.00 0.00 0.00 96 1021.0
20260507055822 -2 24 1.6 3.2 0.00 0.00 0.00 96 1020.9
20260507055317 -2 359 3.2 3.2 0.00 0.00 0.00 96 1020.9
20260507054814 -2 348 1.6 3.2 0.00 0.00 0.00 96 1020.5
20260507054310 -2 2 1.6 3.2 0.00 0.00 0.00 96 1020.7
20260507053808 -2 10 0.0 4.8 0.00 0.00 0.00 95 1020.6
20260507053306 -2 25 0.0 3.2 0.00 0.00 0.00 95 1020.7
20260507052804 -2 31 3.2 3.2 0.00 0.00 0.00 95 1020.7
20260507052300 -2 127 0.0 3.2 0.00 0.00 0.00 95 1020.7
20260507051759 -2 13 3.2 3.2 0.00 0.00 0.00 95 1020.6
20260507051255 -1 147 1.6 3.2 0.00 0.00 0.00 95 1020.5
20260507050752 -1 174 3.2 6.4 0.00 0.00 0.00 95 1020.2
20260507050248 -1 211 3.2 3.2 0.00 0.00 0.00 95 1020.7
20260507045745 -1 166 3.2 4.8 0.00 0.00 0.00 94 1020.4
20260507045241 -1 181 1.6 4.8 0.00 0.00 0.00 94 1020.5
20260507044739 -1 114 1.6 8.0 0.00 0.00 0.00 94 1020.4
20260507044235 -1 148 3.2 9.7 0.00 0.00 0.00 93 1020.5
20260507043732 -1 151 6.4 6.4 0.00 0.00 0.00 93 1020.4
20260507043229 -1 159 3.2 8.0 0.00 0.00 0.00 93 1020.5
20260507042726 -1 180 0.0 8.0 0.00 0.00 0.00 93 1020.5
20260507042226 -1 151 3.2 6.4 0.00 0.00 0.00 93 1020.4
20260507041724 -1 213 1.6 3.2 0.00 0.00 0.00 92 1020.5
20260507041220 -1 170 6.4 6.4 0.00 0.00 0.00 92 1020.5
20260507040717 -1 125 3.2 8.0 0.00 0.00 0.00 92 1020.6
20260507040213 -1 149 1.6 4.8 0.00 0.00 0.00 92 1020.6
20260507035709 -1 179 3.2 4.8 0.00 0.00 0.00 91 1020.6
20260507035205 -1 157 6.4 6.4 0.00 0.00 0.00 91 1020.6
20260507034702 -1 178 0.0 4.8 0.00 0.00 0.00 90 1020.4
20260507034200 -1 177 3.2 3.2 0.00 0.00 0.00 90 1020.2
20260507033658 -1 61 0.0 3.2 0.00 0.00 0.00 89 1020.4
20260507033155 -1 149 1.6 6.4 0.00 0.00 0.00 89 1020.5
20260507032652 -1 180 0.0 3.2 0.00 0.00 0.00 89 1020.6
20260507032148 -1 179 0.0 4.8 0.00 0.00 0.00 88 1020.5
20260507031645 -1 179 3.2 4.8 0.00 0.00 0.00 88 1020.5
20260507031141 -1 170 3.2 6.4 0.00 0.00 0.00 88 1020.2
20260507030638 -1 153 6.4 6.4 0.00 0.00 0.00 87 1020.2
20260507030136 -1 127 0.0 3.2 0.00 0.00 0.00 87 1020.2
20260507025633 0 37 0.0 3.2 0.00 0.00 0.00 86 1020.0
20260507025130 0 149 1.6 3.2 0.00 0.00 0.00 86 1020.1
20260507024628 0 124 1.6 3.2 0.00 0.00 0.00 85 1020.0
20260507024125 0 112 3.2 6.4 0.00 0.00 0.00 84 1019.9
20260507023620 0 127 3.2 6.4 0.00 0.00 0.00 83 1020.0
20260507023118 0 185 4.8 9.7 0.00 0.00 0.00 83 1019.9
20260507022615 0 192 6.4 6.4 0.00 0.00 0.00 82 1019.9
20260507022110 0 13 4.8 4.8 0.00 0.00 0.00 81 1020.0
20260507021606 0 185 1.6 6.4 0.00 0.00 0.00 81 1019.6
20260507021102 0 187 3.2 4.8 0.00 0.00 0.00 81 1019.9
20260507020601 0 332 0.0 3.2 0.00 0.00 0.00 80 1020.0
20260507020057 0 164 9.7 12.9 0.00 0.00 0.00 79 1019.7
20260507015556 0 308 1.6 6.4 0.00 0.00 0.00 78 1019.5
20260507015053 1 316 3.2 4.8 0.00 0.00 0.00 78 1019.9
20260507014549 1 71 3.2 9.7 0.00 0.00 0.00 75 1019.6
20260507014044 1 216 1.6 9.7 0.00 0.00 0.00 74 1019.9
20260507013541 1 25 3.2 6.4 0.00 0.00 0.00 74 1019.9
20260507013039 1 250 3.2 8.0 0.00 0.00 0.00 73 1019.7
20260507012536 1 144 1.6 6.4 0.00 0.00 0.00 74 1019.6
20260507012032 2 306 1.6 12.9 0.00 0.00 0.00 72 1019.6
20260507011530 2 123 4.8 12.9 0.00 0.00 0.00 71 1019.9
20260507011026 2 170 6.4 14.5 0.00 0.00 0.00 69 1019.6
20260507010520 2 170 9.7 16.1 0.00 0.00 0.00 68 1019.9
20260507010017 2 228 6.4 9.7 0.00 0.00 0.00 68 1019.6
20260507005515 2 78 3.2 11.3 0.00 0.00 0.00 69 1019.5
20260507005011 2 167 9.7 14.5 0.00 0.00 0.00 69 1019.4
20260507004508 2 212 3.2 8.0 0.00 0.00 0.00 69 1019.5
20260507004006 2 180 3.2 11.3 0.00 0.00 0.00 69 1019.4
20260507003500 3 175 6.4 17.7 0.00 0.00 0.00 69 1019.4
20260507002955 3 169 8.0 12.9 0.00 0.00 0.00 67 1019.5
20260507002453 3 135 3.2 6.4 0.00 0.00 0.00 70 1019.4
20260507001949 2 160 3.2 14.5 0.00 0.00 0.00 67 1019.2
20260507001446 2 281 4.8 14.5 0.00 0.00 0.00 67 1019.5
20260507000943 2 153 6.4 9.7 0.00 0.00 0.00 67 1019.6
20260507000439 3 181 6.4 8.0 0.00 0.00 0.00 68 1019.4
20260506235934 3 218 3.2 6.4 0.00 0.00 0.00 69 1019.5
20260506235432 2 181 4.8 12.9 0.00 0.00 0.00 70 1019.9
20260506234927 2 182 1.6 9.7 0.00 0.00 0.00 69 1019.5
20260506234426 2 175 6.4 9.7 0.00 0.00 0.00 68 1019.4
20260506233923 2 178 6.4 8.0 0.00 0.00 0.00 69 1019.5
20260506233419 2 255 4.8 8.0 0.00 0.00 0.00 71 1019.4
20260506232916 2 323 0.0 6.4 0.00 0.00 0.00 71 1019.5
20260506232412 2 285 3.2 8.0 0.00 0.00 0.00 71 1019.2
20260506231908 2 344 0.0 6.4 0.00 0.00 0.00 70 1019.5
20260506231406 1 20 3.2 8.0 0.00 0.00 0.00 70 1019.5
20260506230903 1 292 6.4 9.7 0.00 0.00 0.00 71 1019.5
20260506230400 1 349 3.2 6.4 0.00 0.00 0.00 72 1019.5
20260506225856 1 42 0.0 6.4 0.00 0.00 0.00 72 1019.4
20260506225353 1 357 6.4 8.0 0.00 0.00 0.00 74 1019.5
20260506224850 1 14 8.0 9.7 0.00 0.00 0.00 74 1019.5
20260506224348 1 353 4.8 9.7 0.00 0.00 0.00 74 1019.5
20260506223844 1 6 6.4 12.9 0.00 0.00 0.00 75 1019.4
20260506223339 1 8 6.4 11.3 0.00 0.00 0.00 75 1019.7
20260506222836 1 0 6.4 14.5 0.00 0.00 0.00 73 1019.6
20260506222331 1 16 9.7 9.7 0.00 0.00 0.00 77 1019.5
20260506221824 1 340 9.7 12.9 0.00 0.00 0.00 76 1019.7
20260506221321 1 9 8.0 12.9 0.00 0.00 0.00 75 1019.6
20260506220820 1 329 9.7 12.9 0.00 0.00 0.00 76 1019.6
20260506220319 0 337 9.7 16.1 0.00 0.00 0.00 77 1019.9
20260506215816 0 2 9.7 12.9 0.00 0.00 0.00 78 1019.7
20260506215312 0 335 12.9 14.5 0.00 0.00 0.00 79 1019.7
20260506214808 0 313 14.5 19.3 0.00 0.00 0.00 81 1019.9
20260506214305 0 26 14.5 17.7 0.00 0.00 0.00 81 1019.7
20260506213804 0 9 11.3 19.3 0.00 0.00 0.00 81 1019.6
20260506213300 0 358 11.3 20.9 0.00 0.00 0.00 79 1019.7
20260506212757 0 318 12.9 14.5 0.00 0.00 0.00 83 1019.7
20260506212253 0 14 8.0 16.1 0.00 0.00 0.00 81 1020.0
20260506211748 0 0 6.4 17.7 0.00 0.00 0.00 83 1020.0
20260506211245 0 22 11.3 16.1 0.00 0.00 0.00 84 1019.9